Location: Praha
(50.0830°N, 14.4670°E)
Time: 05:37:13
(UTC+02:00)

ISS - Pass Details

Date: 31 March 2020
Orbit: 417 x 423 km, 51.6° (Epoch: 29 March)

Event Time Altitude Azimuth Distance (km) Brightness Sun altitude
Rises 21:45:20 0° 287° (WNW) 2,362 1.4 -20.4°
Reaches altitude 10° 21:47:33 10° 277° (W) 1,496 -0.1 -20.7°
Enters shadow 21:50:14 31° 227° (SW) 750 -2.5 -21.0°
